Location: Innerarity Island Observatory
(30.3139°N, 87.4867°W)
Time: 10:12:04
(UTC-05:00)

OPAL - Visible Passes

Search period start: 01 July 2016 00:00
Search period end: 11 July 2016 00:00
Orbit: 744 x 795 km, 100.2° (Epoch: 30 June)

Date Brightness Start Highest point End Pass type
(mag) Time Alt. Az. Time Alt. Az. Time Alt. Az.
01 Jul 8.5 02:20:32 10° NNE 02:23:57 43° N 02:23:57 43° N visible
02 Jul 9.2 01:45:24 10° NNE 01:47:59 27° NE 01:47:59 27° NE visible
02 Jul 9.3 03:25:22 10° NNW 03:28:17 17° WNW 03:28:17 17° WNW visible
03 Jul 10.1 01:11:21 10° ENE 01:12:02 12° ENE 01:12:02 12° ENE visible
03 Jul 8.6 02:48:48 10° N 02:52:19 35° NW 02:52:19 35° NW visible
04 Jul 8.7 02:13:09 10° NNE 02:16:22 40° NNE 02:16:22 40° NNE visible
05 Jul 9.5 01:38:14 10° NE 01:40:24 22° NE 01:40:24 22° NE visible
05 Jul 9.1 03:17:33 10° NNW 03:20:41 21° NW 03:20:41 21° NW visible
06 Jul 8.5 02:41:17 10° N 02:44:44 39° NNW 02:44:44 39° NNW visible
07 Jul 8.9 02:05:49 10° NNE 02:08:46 35° NE 02:08:46 35° NE visible
07 Jul 9.7 03:47:25 10° NW 03:49:03 12° WNW 03:49:03 12° WNW visible
08 Jul 9.8 01:31:09 10° NE 01:32:48 18° ENE 01:32:48 18° ENE visible
08 Jul 8.9 03:09:50 10° NNW 03:13:05 26° NW 03:13:05 26° NW visible
09 Jul 8.5 02:33:49 10° N 02:37:07 41° N 02:37:07 41° N visible
10 Jul 9.2 01:58:32 10° NNE 02:01:09 29° NE 02:01:09 29° NE visible
10 Jul 9.5 03:39:04 10° NNW 03:41:26 15° WNW 03:41:26 15° WNW visible
